Location: Beaver Dam Church
(34.5318°N, 88.9828°W)
Time: 09:19:05
(UTC+00:00)

OAO 2 Rocket - Pass Details

Date: 29 October 2020
Orbit: 676 x 746 km, 35.0° (Epoch: 25 November)

Event Time Altitude Azimuth Distance (km) Brightness Sun altitude
Rises 23:34:51 0° 263° (W) 3,077 9.2 -6.8°
Reaches altitude 10° 23:37:17 10° 263° (W) 2,149 7.6 -7.3°
Maximum altitude 23:42:19 89° 347° (NNW) 690 3.3 -8.4°
Enters shadow 23:46:57 12° 84° (E) 1,994 5.0 -9.3°
